FW1341 Weather Reports


Display with metric or nautical units.
time (UTC)temp
F
wind
direction
speed
MPH
gust
MPH
rain 1hr
in
rain 24hr
in
rain mn
in
humidity
%
barometer
mb
20260502220933 60 233 4.0 9.0 0.00 0.00 0.00 37 1008.9
20260502220430 61 359 3.0 10.0 0.00 0.00 0.00 38 1008.9
20260502215930 61 322 4.0 11.0 0.00 0.00 0.00 37 1008.8
20260502214930 61 311 5.0 12.0 0.00 0.00 0.00 36 1008.8
20260502214432 61 323 5.0 13.0 0.00 0.00 0.00 36 1008.7
20260502213930 62 181 3.0 13.0 0.00 0.00 0.00 35 1008.6
20260502213429 62 95 4.0 14.0 0.00 0.00 0.00 35 1008.6
20260502212928 61 56 4.0 14.0 0.00 0.00 0.00 35 1008.5
20260502211927 62 57 3.0 12.0 0.00 0.00 0.00 32 1008.4
20260502211424 62 328 4.0 13.0 0.00 0.00 0.00 33 1008.5
20260502210922 62 285 5.0 13.0 0.00 0.00 0.00 33 1008.5
20260502210417 62 338 5.0 12.0 0.00 0.00 0.00 33 1008.5
20260502205916 62 18 4.0 12.0 0.00 0.00 0.00 33 1008.5
20260502205418 63 62 4.0 11.0 0.00 0.00 0.00 33 1008.4
20260502204916 63 194 3.0 8.0 0.00 0.00 0.00 33 1008.3
20260502204419 63 56 3.0 8.0 0.00 0.00 0.00 34 1008.3
20260502203918 62 328 2.0 12.0 0.00 0.00 0.00 33 1008.4
20260502203417 62 353 1.0 12.0 0.00 0.00 0.00 34 1008.3
20260502202911 62 97 1.0 5.0 0.00 0.00 0.00 37 1008.3
20260502202411 61 18 3.0 9.0 0.00 0.00 0.00 38 1008.3
20260502201908 62 15 3.0 9.0 0.00 0.00 0.00 37 1008.4
20260502201409 62 29 2.0 6.0 0.00 0.00 0.00 36 1008.4
20260502200909 62 358 2.0 8.0 0.00 0.00 0.00 37 1008.4
20260502200409 62 336 2.0 8.0 0.00 0.00 0.00 36 1008.4
20260502195908 61 96 3.0 8.0 0.00 0.00 0.00 37 1008.4
20260502195406 61 15 3.0 11.0 0.00 0.00 0.00 37 1008.6
20260502194906 61 8 3.0 13.0 0.00 0.00 0.00 37 1008.6
20260502194405 61 327 4.0 13.0 0.00 0.00 0.00 38 1008.6
20260502193905 61 330 5.0 15.0 0.00 0.00 0.00 37 1008.8
20260502193403 62 334 3.0 15.0 0.00 0.00 0.00 37 1008.8
20260502192904 62 231 2.0 7.0 0.00 0.00 0.00 38 1008.9
20260502192357 62 64 2.0 10.0 0.00 0.00 0.00 37 1009.0
20260502191356 61 15 3.0 10.0 0.00 0.00 0.00 38 1009.3
20260502190857 61 20 3.0 9.0 0.00 0.00 0.00 38 1009.5
20260502190357 61 16 3.0 9.0 0.00 0.00 0.00 38 1009.5
20260502185900 61 346 3.0 10.0 0.00 0.00 0.00 39 1009.7
20260502185352 60 48 4.0 10.0 0.00 0.00 0.00 38 1009.7
20260502184852 60 25 3.0 10.0 0.00 0.00 0.00 37 1009.8
20260502184352 61 40 2.0 9.0 0.00 0.00 0.00 36 1009.9
20260502183854 61 339 3.0 9.0 0.00 0.00 0.00 37 1010.0
20260502183352 61 17 3.0 9.0 0.00 0.00 0.00 38 1009.9
20260502181347 60 297 3.0 10.0 0.00 0.00 0.00 38 1010.2
20260502180845 60 68 3.0 8.0 0.00 0.00 0.00 38 1010.3
20260502180346 61 327 2.0 8.0 0.00 0.00 0.00 37 1010.4
20260502170336 60 235 1.0 5.0 0.00 0.00 0.00 42 1010.7
20260502164327 58 80 1.0 7.0 0.00 0.00 0.00 45 1011.1
20260502163325 57 264 3.0 11.0 0.00 0.00 0.00 47 1011.2
20260502162824 57 80 3.0 11.0 0.00 0.00 0.00 47 1011.3
20260502162318 57 353 3.0 11.0 0.00 0.00 0.00 47 1011.1
20260502161322 57 318 3.0 8.0 0.00 0.00 0.00 45 1011.2
20260502152308 57 311 3.0 10.0 0.00 0.00 0.00 48 1011.6
20260502151807 56 300 3.0 10.0 0.00 0.00 0.00 49 1011.6
20260502151307 56 358 3.0 10.0 0.00 0.00 0.00 50 1011.8
20260502150307 56 11 4.0 10.0 0.00 0.00 0.00 49 1011.7
20260502130745 51 34 4.0 12.0 0.00 0.00 0.00 61 1011.5
20260502130245 51 15 4.0 12.0 0.00 0.00 0.00 63 1011.4
20260502123737 51 82 2.0 8.0 0.00 0.00 0.00 64 1011.5
20260502123237 51 57 3.0 9.0 0.00 0.00 0.00 65 1011.5
20260502122738 51 295 4.0 11.0 0.00 0.00 0.00 64 1011.5
20260502122230 51 316 4.0 14.0 0.00 0.00 0.00 65 1011.3
20260502121733 51 1 3.0 14.0 0.00 0.00 0.00 64 1011.4
20260502121231 51 322 2.0 10.0 0.00 0.00 0.00 65 1011.5
20260502120731 51 340 1.0 10.0 0.00 0.00 0.00 66 1011.6
20260502120231 50 345 2.0 9.0 0.00 0.00 0.00 67 1011.4
20260502115732 50 294 2.0 9.0 0.00 0.00 0.00 66 1011.4
20260502115223 50 0 2.0 7.0 0.00 0.00 0.00 65 1011.4
20260502114726 50 338 2.0 6.0 0.00 0.00 0.00 66 1011.3
20260502114227 50 78 3.0 8.0 0.00 0.00 0.00 66 1011.4
20260502113725 50 317 3.0 8.0 0.00 0.00 0.00 65 1011.5
20260502113225 50 258 3.0 10.0 0.00 0.00 0.00 65 1011.4
20260502112726 50 78 3.0 10.0 0.00 0.00 0.00 65 1011.4
20260502112221 50 315 3.0 8.0 0.00 0.00 0.00 65 1011.5
20260502111721 50 330 3.0 11.0 0.00 0.00 0.00 64 1011.5
20260502111220 50 346 3.0 11.0 0.00 0.00 0.00 64 1011.3
20260502110721 50 346 3.0 7.0 0.00 0.00 0.00 63 1011.2
20260502110220 50 335 3.0 9.0 0.00 0.00 0.00 63 1011.2
20260502105721 51 22 3.0 9.0 0.00 0.00 0.00 62 1011.1
20260502105212 51 345 3.0 9.0 0.00 0.00 0.00 62 1011.1
20260502104213 51 56 4.0 10.0 0.00 0.00 0.00 63 1011.1
20260502103713 51 307 5.0 14.0 0.00 0.00 0.00 63 1010.9
20260502103213 51 302 3.0 14.0 0.00 0.00 0.00 64 1010.8
20260502102712 51 307 2.0 8.0 0.00 0.00 0.00 64 1010.8
20260502102210 51 338 3.0 8.0 0.00 0.00 0.00 63 1010.7
20260502101709 52 327 3.0 8.0 0.00 0.00 0.00 64 1010.7
20260502101210 52 330 3.0 9.0 0.00 0.00 0.00 64 1010.6
20260502100710 52 51 3.0 11.0 0.00 0.00 0.00 63 1010.6
20260502100212 52 328 3.0 11.0 0.00 0.00 0.00 63 1010.5
20260502091159 53 36 2.0 8.0 0.00 0.00 0.00 63 1009.8
20260502090658 54 45 2.0 9.0 0.00 0.00 0.00 62 1009.7
20260502090158 54 340 3.0 9.0 0.00 0.00 0.00 62 1009.7
20260502071142 56 340 1.0 5.0 0.00 0.00 0.00 65 1009.7
20260502070638 56 347 0.0 4.0 0.00 0.00 0.00 65 1009.7
20260502070139 56 124 1.0 4.0 0.00 0.00 0.00 64 1009.5
20260502065138 56 321 2.0 10.0 0.00 0.00 0.00 64 1009.3
20260502064638 56 22 2.0 10.0 0.00 0.00 0.00 64 1009.3
20260502064138 56 76 1.0 9.0 0.00 0.00 0.00 63 1009.2
20260502063638 57 352 1.0 5.0 0.00 0.00 0.00 63 1009.1
20260502062635 57 311 3.0 10.0 0.00 0.00 0.00 62 1009.3
20260502062134 57 4 3.0 12.0 0.00 0.00 0.00 62 1009.4
20260502061130 57 63 3.0 9.0 0.00 0.00 0.00 62 1009.6
20260502060630 58 41 2.0 10.0 0.00 0.00 0.00 63 1009.7
20260502060125 58 36 2.0 10.0 0.00 0.00 0.00 63 1009.8
20260502055625 58 43 3.0 8.0 0.00 0.00 0.00 63 1009.8
20260502054626 58 85 1.0 3.0 0.00 0.00 0.00 65 1009.8
20260502054122 58 304 1.0 5.0 0.00 0.00 0.00 64 1009.9
20260502053622 58 97 2.0 11.0 0.00 0.00 0.00 64 1009.7
20260502052618 58 340 1.0 6.0 0.00 0.00 0.00 66 1009.7
20260502052114 58 36 1.0 4.0 0.00 0.00 0.00 66 1009.8
20260502051615 58 314 1.0 9.0 0.00 0.00 0.00 67 1009.8
20260502051112 58 1 2.0 9.0 0.00 0.00 0.00 67 1009.9
20260502050613 58 25 1.0 6.0 0.00 0.00 0.00 68 1009.8
20260502050114 58 11 1.0 5.0 0.00 0.00 0.00 69 1009.7
20260502045107 58 317 2.0 6.0 0.00 0.00 0.00 70 1009.8
20260502044607 58 221 2.0 6.0 0.00 0.00 0.00 70 1009.8
20260502044106 58 231 2.0 8.0 0.00 0.00 0.00 70 1009.9
20260502043606 58 221 2.0 8.0 0.00 0.00 0.00 70 1009.9
20260502043106 58 204 2.0 8.0 0.00 0.00 0.00 69 1009.9
20260502042603 58 156 1.0 8.0 0.00 0.00 0.00 69 1009.9
20260502041602 58 214 2.0 8.0 0.00 0.00 0.00 68 1009.7
20260502041102 58 270 2.0 8.0 0.00 0.00 0.00 68 1009.7
20260502040602 58 232 1.0 3.0 0.00 0.00 0.00 69 1009.6
20260502040104 59 204 0.0 4.0 0.00 0.00 0.00 69 1009.4
20260502035601 59 238 0.0 4.0 0.00 0.00 0.00 67 1009.5
20260502035101 59 288 1.0 3.0 0.00 0.00 0.00 66 1009.4
20260502034601 59 223 1.0 7.0 0.00 0.00 0.00 65 1009.4
20260502034102 59 211 1.0 7.0 0.00 0.00 0.00 64 1009.3
20260502033101 58 211 1.0 6.0 0.00 0.00 0.00 63 1009.0
20260502032600 58 158 2.0 8.0 0.00 0.00 0.00 63 1008.8
20260502031559 58 214 2.0 7.0 0.00 0.00 0.00 63 1008.7
20260502031059 58 222 2.0 7.0 0.00 0.00 0.00 63 1008.6
20260502030600 58 194 3.0 7.0 0.00 0.00 0.00 62 1008.6
20260502030101 58 250 2.0 7.0 0.00 0.00 0.00 62 1008.5
20260502025556 58 145 3.0 6.0 0.00 0.00 0.00 62 1008.5
20260502025058 58 183 2.0 7.0 0.00 0.00 0.00 62 1008.5
20260502024559 58 166 2.0 7.0 0.00 0.00 0.00 62 1008.5
20260502024057 58 211 1.0 6.0 0.00 0.00 0.00 61 1008.5
20260502023556 58 187 1.0 5.0 0.00 0.00 0.00 61 1008.5
20260502023057 58 207 1.0 6.0 0.00 0.00 0.00 61 1008.6
20260502022057 58 215 1.0 6.0 0.00 0.00 0.00 61 1008.7
20260502021556 59 114 0.0 6.0 0.00 0.00 0.00 60 1008.6
20260502021055 59 129 1.0 5.0 0.00 0.00 0.00 60 1008.7
20260502020553 59 192 1.0 5.0 0.00 0.00 0.00 59 1008.7
20260502020053 60 172 0.0 3.0 0.00 0.00 0.00 59 1008.6
20260502015554 60 138 0.0 1.0 0.00 0.00 0.00 58 1008.6
20260502015052 60 159 0.0 3.0 0.00 0.00 0.00 56 1008.7
20260502014552 60 71 0.0 4.0 0.00 0.00 0.00 55 1008.6
20260502014050 60 190 0.0 5.0 0.00 0.00 0.00 55 1008.5
20260502013548 60 197 1.0 5.0 0.00 0.00 0.00 54 1008.3
20260502013050 61 207 1.0 8.0 0.00 0.00 0.00 53 1008.2
20260502012548 61 198 1.0 8.0 0.00 0.00 0.00 53 1008.1
20260502012049 61 179 1.0 6.0 0.00 0.00 0.00 52 1008.0
20260502011046 61 203 2.0 8.0 0.00 0.00 0.00 50 1008.0
20260502010548 61 204 1.0 7.0 0.00 0.00 0.00 49 1007.9
20260502005544 62 204 1.0 9.0 0.00 0.00 0.00 48 1007.6
20260502005046 62 134 2.0 9.0 0.00 0.00 0.00 47 1007.5
20260502004540 62 108 2.0 7.0 0.00 0.00 0.00 46 1007.5
20260502004034 63 134 2.0 6.0 0.00 0.00 0.00 45 1007.3
20260502003534 63 166 2.0 8.0 0.00 0.00 0.00 44 1007.3
20260502002532 63 197 3.0 13.0 0.00 0.00 0.00 43 1007.2
20260502002031 64 197 3.0 8.0 0.00 0.00 0.00 43 1007.2
20260502001531 64 158 3.0 8.0 0.00 0.00 0.00 43 1007.2
20260502001032 64 203 3.0 8.0 0.00 0.00 0.00 43 1007.3
20260502000526 64 172 3.0 9.0 0.00 0.00 0.00 42 1007.4
20260502000028 64 179 3.0 9.0 0.00 0.00 0.00 42 1007.4
20260501235027 64 188 3.0 9.0 0.00 0.00 0.00 42 1007.2
20260501234528 65 214 2.0 8.0 0.00 0.00 0.00 41 1007.0
20260501234029 65 179 3.0 10.0 0.00 0.00 0.00 41 1006.9
20260501233524 65 222 2.0 10.0 0.00 0.00 0.00 40 1007.0
20260501233024 65 194 2.0 6.0 0.00 0.00 0.00 39 1007.0
20260501232525 66 188 3.0 9.0 0.00 0.00 0.00 38 1006.8
20260501232024 66 203 4.0 10.0 0.00 0.00 0.00 38 1006.8
20260501231024 67 210 5.0 12.0 0.00 0.00 0.00 37 1007.0
20260501230518 67 198 5.0 11.0 0.00 0.00 0.00 36 1006.9
20260501230020 67 197 5.0 11.0 0.00 0.00 0.00 36 1006.8
20260501225520 67 255 5.0 12.0 0.00 0.00 0.00 36 1006.8
20260501225020 67 211 5.0 13.0 0.00 0.00 0.00 36 1006.9
20260501224519 68 184 5.0 13.0 0.00 0.00 0.00 36 1007.0
20260501224020 68 191 5.0 16.0 0.00 0.00 0.00 36 1007.1
20260501223515 68 210 5.0 16.0 0.00 0.00 0.00 36 1007.3
20260501223017 68 212 4.0 12.0 0.00 0.00 0.00 36 1007.3
20260501222514 68 172 5.0 12.0 0.00 0.00 0.00 36 1007.2
20260501222016 68 242 5.0 12.0 0.00 0.00 0.00 35 1007.3
20260501221514 68 155 5.0 14.0 0.00 0.00 0.00 36 1007.3
20260501221016 68 200 6.0 14.0 0.00 0.00 0.00 35 1007.4